STARLINK AT (44276 NORAD) Tracking and Keplerian Element Data

This shows tracking and keplerian element data for the satellite.

Feedback or suggestion? Click here.




ElementValue
Catalog44276
NameSTARLINK AT
Epoch Orbit385
Epoch Day173.87420071
Epoch Year2019
RAAN38.2166
Inclination53.0042
Eccentricity0.0002281
Argument of Perigee92.0998
Mean Anonmoly268.0251
Mean Motion15.05433072
Decay Rate1.579E-05
L11 44276U 19029AT 19173.87420071 .00001579 00000-0 12800-3 0 9990
L22 44276 53.0042 38.2166 0002281 92.0998 268.0251 15.05433072 3855

Live tracking and technical data element details for STARLINK AT (NORAD 44276). STARLINK AT can be tracked NOW for your location showing map with azimuth and elevation plus other details from your city location.

Track the satellite on the map from your city or location and see movement details for azimuth, elevation, latitude, longitude, range, height, and movement on the map or in text.







IsCatalogInMostPopularTable: catalog: 44276, numindb: 31
Update: records affected: 1



GetName: 44276 STARLINK AT

Hit Count: updated at: Fri, 19 Jul 2019 07:54:20 GMT